Regional Weather Roundup
Issued by NWS

Home | Current Version | Previous Version | Text Only | Print | Product List | Glossary Off
Versions: 1 2 3 4 5 6 7 8 9 10 11 12 13 14 15 16 17 18 19 20 21 22 23 24 25 26 27 28 29 30 31 32 33 34 35 36 37 38 39 40 41 42 43 44 45 46 47 48 49 50

000
ASUS43 KLMK 282010
RWRKY
KENTUCKY REGIONAL WEATHER ROUNDUP
NATIONAL WEATHER SERVICE LOUISVILLE KY
400 PM EDT FRI APR 28 2017

NOTE "FAIR" INDICATES FEW OR NO CLOUDS BELOW 12,000 FEET
WITH NO SIGNIFICANT WEATHER AND/OR OBSTRUCTIONS TO VISIBILITY.

KYZ001>023-026-027-061>063-070>075-282100-
WESTERN AND SOUTH CENTRAL KENTUCKY

CITY           SKY/WX    TMP DP  RH WIND       PRES   REMARKS
PADUCAH        CLOUDY    74  64  71 S16G23    29.75F
HENDERSON      CLOUDY    73  62  68 SE7       29.80F
OWENSBORO      LGT RAIN  73  64  73 SE9       29.83F
HOPKINSVILLE   CLOUDY    73  68  84 S9        29.83F
BOWLING GREEN  CLOUDY    78  65  63 S15G21    29.87F
GLASGOW        CLOUDY    77  61  58 S6        29.90F
$$

KYZ024-025-028>034-038-045-046-053-282100-
NORTH CENTRAL KENTUCKY

CITY           SKY/WX    TMP DP  RH WIND       PRES   REMARKS
LOUISVILLE/SDF PTSUNNY   78  60  53 SE13      29.88F
LOUISVILLE/LOU MOSUNNY   79  62  56 VRB3      29.89F
FORT KNOX      MOSUNNY   77  62  61 SE7       29.87S
$$

KYZ035>037-039>044-047>052-055>060-089>105-282100-
NORTHEAST KENTUCKY

CITY           SKY/WX    TMP DP  RH WIND       PRES   REMARKS
LEXINGTON      MOSUNNY   79  56  45 S7        29.93F
COVINGTON      CLOUDY    71  55  56 SE10      29.94F
FRANKFORT      MOSUNNY   77  56  48 SE8       29.91F
$$

KYZ054-064>069-076>088-106>120-282100-
SOUTHEAST KENTUCKY

CITY           SKY/WX    TMP DP  RH WIND       PRES   REMARKS
JACKSON        SUNNY     84  52  33 VRB5      29.96F
LONDON         PTSUNNY   82  58  43 S9        29.94F
SOMERSET       MOSUNNY   79  59  50 S7G16     29.94F
MIDDLESBORO    PTSUNNY   81  62  51 S5        29.97F
MONTICELLO     MOCLDY    81  64  56 VRB5G16   29.94F
$$




USA.gov is the U.S. government's official web portal to all federal, state and local government web resources and services.